Location: Newark
(43.4306°N, 0.3089°E)
Time: 03:30:57
(UTC+00:00)

Transit 2A Rocket - Pass Details

Date: 27 August 2019
Orbit: 592 x 911 km, 66.7° (Epoch: 20 September)

Event Time Altitude Azimuth Distance (km) Brightness Sun altitude
Rises 01:28:29 0° 338° (NNW) 3,039 8.6 -32.7°
Reaches altitude 10° 01:31:31 10° 357° (N) 2,064 7.9 -32.5°
Maximum altitude 01:34:45 18° 41° (NE) 1,531 7.2 -32.2°
Drops below altitude 10° 01:37:51 10° 86° (E) 1,966 7.5 -32.0°
Sets 01:40:38 0° 106° (ESE) 2,840 8.1 -31.7°
